IKS7011 SPJC-SBRB

Flight info

Callsign IKS7011
Flight time 1h 52m
Altitude 23000
Route LIMA5F OPROS T315 VADOS/N0476F290 UL306 ILNAP UN420 RCO DCT
Aircraft B738/M-SDE2E3FGHIRWXY/LB1

Departure

Time 2026-04-23 21:30
Airport Jorge Chávez International Airport (SPJC)

Arrival

Time 2026-04-23 23:22
Airport Rio Branco-Plácido de Castro International Airport (SBRB)
Time Latitude Longitude Altitude Speed Heading
2026-04-23 20:40 -12.02550 -77.11752 82 ft 0 kts 244°
2026-04-23 21:19 -12.02545 -77.11742 83 ft 4 kts 246°
2026-04-23 21:19 -12.02536 -77.11716 81 ft 4 kts 265°
2026-04-23 21:19 -12.02540 -77.11694 79 ft 3 kts 328°
2026-04-23 21:20 -12.02544 -77.11692 79 ft 0 kts 334°
2026-04-23 21:23 -12.02537 -77.11695 82 ft 6 kts 334°
2026-04-23 21:23 -12.02491 -77.11718 82 ft 8 kts 334°
2026-04-23 21:23 -12.02444 -77.11741 79 ft 7 kts 334°
2026-04-23 21:24 -12.02399 -77.11730 83 ft 7 kts 44°
2026-04-23 21:24 -12.02373 -77.11687 80 ft 7 kts 62°
2026-04-23 21:24 -12.02352 -77.11643 73 ft 7 kts 64°
2026-04-23 21:24 -12.02331 -77.11600 75 ft 7 kts 64°
2026-04-23 21:25 -12.02301 -77.11565 73 ft 8 kts 21°
2026-04-23 21:25 -12.02250 -77.11577 77 ft 9 kts 334°
2026-04-23 21:25 -12.02156 -77.11623 71 ft 21 kts 334°
2026-04-23 21:25 -12.01990 -77.11705 63 ft 31 kts 334°
2026-04-23 21:26 -12.01793 -77.11802 66 ft 28 kts 334°
2026-04-23 21:26 -12.01622 -77.11890 62 ft 27 kts 332°
2026-04-23 21:26 -12.01461 -77.11972 54 ft 25 kts 335°
2026-04-23 21:26 -12.01316 -77.12043 58 ft 19 kts 331°
2026-04-23 21:27 -12.01231 -77.12138 57 ft 18 kts 310°
2026-04-23 21:27 -12.01126 -77.12202 49 ft 17 kts 335°
2026-04-23 21:27 -12.01019 -77.12254 50 ft 17 kts 333°
2026-04-23 21:27 -12.00948 -77.12289 49 ft 7 kts 334°
2026-04-23 21:28 -12.00904 -77.12310 49 ft 7 kts 336°
2026-04-23 21:28 -12.00860 -77.12308 49 ft 7 kts 38°
2026-04-23 21:28 -12.00839 -77.12267 48 ft 7 kts 63°
2026-04-23 21:28 -12.00819 -77.12226 51 ft 6 kts 63°
2026-04-23 21:29 -12.00799 -77.12185 49 ft 6 kts 64°
2026-04-23 21:29 -12.00799 -77.12136 48 ft 10 kts 112°
2026-04-23 21:29 -12.00903 -77.12066 51 ft 40 kts 154°
2026-04-23 21:29 -12.01374 -77.11834 57 ft 108 kts 154°
2026-04-23 21:30 -12.02225 -77.11422 115 ft 159 kts 156°
2026-04-23 21:30 -12.03254 -77.10920 788 ft 162 kts 154°
2026-04-23 21:30 -12.04256 -77.10391 1590 ft 164 kts 155°
2026-04-23 21:30 -12.05337 -77.09852 2037 ft 187 kts 155°
2026-04-23 21:31 -12.06577 -77.09243 2269 ft 213 kts 155°
2026-04-23 21:31 -12.07988 -77.08553 2538 ft 233 kts 155°
2026-04-23 21:31 -12.09528 -77.07799 2755 ft 256 kts 154°
2026-04-23 21:31 -12.11173 -77.06994 3359 ft 265 kts 154°
2026-04-23 21:32 -12.12816 -77.06169 4162 ft 267 kts 149°
2026-04-23 21:32 -12.14112 -77.04816 4884 ft 272 kts 117°
2026-04-23 21:32 -12.14591 -77.02950 5668 ft 275 kts 90°
2026-04-23 21:32 -12.14198 -77.01037 6387 ft 280 kts 63°
2026-04-23 21:33 -12.13011 -76.99451 7075 ft 284 kts 41°
2026-04-23 21:33 -12.11446 -76.98241 7775 ft 287 kts 35°
2026-04-23 21:33 -12.09775 -76.97079 8462 ft 290 kts 34°
2026-04-23 21:33 -12.08083 -76.95925 9143 ft 293 kts 34°
2026-04-23 21:34 -12.06395 -76.94773 9784 ft 297 kts 34°
2026-04-23 21:34 -12.04660 -76.93583 10334 ft 306 kts 34°
2026-04-23 21:34 -12.02834 -76.92319 10491 ft 327 kts 34°
2026-04-23 21:34 -12.00887 -76.90964 10642 ft 347 kts 34°
2026-04-23 21:35 -11.98861 -76.89549 10905 ft 360 kts 34°
2026-04-23 21:35 -11.96775 -76.88088 11378 ft 366 kts 34°
2026-04-23 21:35 -11.94697 -76.86632 11997 ft 367 kts 34°
2026-04-23 21:35 -11.92581 -76.85143 12618 ft 370 kts 34°
2026-04-23 21:36 -11.88292 -76.82136 13841 ft 376 kts 34°
2026-04-23 21:36 -11.86860 -76.81126 14211 ft 379 kts 35°
2026-04-23 21:36 -11.83962 -76.79088 14970 ft 382 kts 34°
2026-04-23 21:37 -11.82480 -76.78046 15344 ft 384 kts 35°
2026-04-23 21:37 -11.80297 -76.76494 15948 ft 388 kts 35°
2026-04-23 21:37 -11.78073 -76.74928 16570 ft 389 kts 35°
2026-04-23 21:37 -11.75818 -76.73359 17133 ft 393 kts 35°
2026-04-23 21:38 -11.73552 -76.71782 17665 ft 396 kts 35°
2026-04-23 21:38 -11.71265 -76.70186 18170 ft 399 kts 35°
2026-04-23 21:38 -11.68986 -76.68591 18652 ft 401 kts 35°
2026-04-23 21:38 -11.66720 -76.67004 19128 ft 403 kts 35°
2026-04-23 21:39 -11.64394 -76.65375 19613 ft 406 kts 35°
2026-04-23 21:39 -11.62053 -76.63737 20081 ft 408 kts 36°
2026-04-23 21:39 -11.59705 -76.62091 20565 ft 410 kts 36°
2026-04-23 21:39 -11.57343 -76.60436 21025 ft 412 kts 36°
2026-04-23 21:40 -11.54997 -76.58793 21438 ft 415 kts 36°
2026-04-23 21:40 -11.52607 -76.57120 21844 ft 417 kts 36°
2026-04-23 21:40 -11.50204 -76.55438 22220 ft 419 kts 36°
2026-04-23 21:40 -11.47790 -76.53748 22593 ft 421 kts 36°
2026-04-23 21:41 -11.45392 -76.52069 22985 ft 423 kts 36°
2026-04-23 21:41 -11.42961 -76.50369 23343 ft 425 kts 36°
2026-04-23 21:41 -11.40509 -76.48654 23688 ft 427 kts 36°
2026-04-23 21:41 -11.38159 -76.46792 23996 ft 428 kts 43°
2026-04-23 21:42 -11.36029 -76.44722 24339 ft 428 kts 45°
2026-04-23 21:42 -11.33897 -76.42583 24632 ft 431 kts 45°
2026-04-23 21:42 -11.31763 -76.40431 24930 ft 433 kts 45°
2026-04-23 21:42 -11.29599 -76.38259 25226 ft 435 kts 45°
2026-04-23 21:43 -11.27456 -76.36126 25525 ft 436 kts 45°
2026-04-23 21:43 -11.25275 -76.33970 25829 ft 438 kts 45°
2026-04-23 21:43 -11.23082 -76.31809 26101 ft 440 kts 45°
2026-04-23 21:43 -11.20867 -76.29632 26372 ft 441 kts 45°
2026-04-23 21:44 -11.18636 -76.27443 26640 ft 443 kts 45°
2026-04-23 21:44 -11.16441 -76.25289 26909 ft 445 kts 45°
2026-04-23 21:44 -11.14195 -76.23084 27168 ft 446 kts 45°
2026-04-23 21:44 -11.11950 -76.20880 27417 ft 448 kts 45°
2026-04-23 21:45 -11.09718 -76.18688 27660 ft 449 kts 45°
2026-04-23 21:45 -11.07480 -76.16490 27923 ft 450 kts 45°
2026-04-23 21:45 -11.05217 -76.14269 28169 ft 452 kts 45°
2026-04-23 21:45 -11.02946 -76.12040 28386 ft 453 kts 45°
2026-04-23 21:46 -11.00671 -76.09809 28594 ft 455 kts 45°
2026-04-23 21:46 -10.98383 -76.07556 28825 ft 456 kts 46°
2026-04-23 21:46 -10.96323 -76.05162 29047 ft 456 kts 54°
2026-04-23 21:46 -10.94608 -76.02437 29250 ft 457 kts 59°
2026-04-23 21:47 -10.93001 -75.99635 29448 ft 458 kts 60°
2026-04-23 21:47 -10.91395 -75.96818 29611 ft 460 kts 60°
2026-04-23 21:47 -10.89778 -75.93989 29773 ft 462 kts 60°
2026-04-23 21:47 -10.88168 -75.91192 30035 ft 462 kts 60°
2026-04-23 21:48 -10.86538 -75.88376 30364 ft 460 kts 59°
2026-04-23 21:48 -10.84902 -75.85563 30697 ft 458 kts 59°
2026-04-23 21:48 -10.83295 -75.82808 30969 ft 458 kts 59°
2026-04-23 21:48 -10.81668 -75.80024 31204 ft 458 kts 59°
2026-04-23 21:49 -10.80035 -75.77230 31471 ft 458 kts 59°
2026-04-23 21:49 -10.78407 -75.74444 31816 ft 456 kts 59°
2026-04-23 21:49 -10.76789 -75.71676 32154 ft 455 kts 59°
2026-04-23 21:49 -10.75171 -75.68907 32436 ft 454 kts 59°
2026-04-23 21:50 -10.73572 -75.66170 32697 ft 454 kts 59°
2026-04-23 21:50 -10.71959 -75.63412 32998 ft 453 kts 59°
2026-04-23 21:50 -10.70337 -75.60641 33272 ft 453 kts 59°
2026-04-23 21:50 -10.68739 -75.57912 33511 ft 453 kts 59°
2026-04-23 21:51 -10.67120 -75.55146 33799 ft 453 kts 59°
2026-04-23 21:51 -10.65513 -75.52401 34127 ft 451 kts 59°
2026-04-23 21:51 -10.63912 -75.49664 34429 ft 450 kts 59°
2026-04-23 21:51 -10.62308 -75.46927 34680 ft 449 kts 59°
2026-04-23 21:52 -10.60711 -75.44201 34981 ft 448 kts 59°
2026-04-23 21:52 -10.59120 -75.41485 35281 ft 447 kts 59°
2026-04-23 21:52 -10.57529 -75.38771 35493 ft 447 kts 59°
2026-04-23 21:52 -10.55938 -75.36059 35701 ft 447 kts 59°
2026-04-23 21:53 -10.54362 -75.33373 35950 ft 446 kts 59°
2026-04-23 21:53 -10.52777 -75.30671 36236 ft 444 kts 59°
2026-04-23 21:53 -10.51189 -75.27964 36466 ft 444 kts 59°
2026-04-23 21:53 -10.49602 -75.25260 36644 ft 445 kts 59°
2026-04-23 21:54 -10.48017 -75.22559 36941 ft 442 kts 59°
2026-04-23 21:54 -10.46447 -75.19883 37246 ft 439 kts 59°
2026-04-23 21:54 -10.44900 -75.17250 37217 ft 439 kts 59°
2026-04-23 21:55 -10.41783 -75.11944 37235 ft 434 kts 59°
2026-04-23 21:55 -10.38692 -75.06684 37235 ft 432 kts 59°
2026-04-23 21:56 -10.35613 -75.01449 37231 ft 430 kts 59°
2026-04-23 21:56 -10.32553 -74.96249 37226 ft 431 kts 59°
2026-04-23 21:57 -10.29460 -74.91000 37220 ft 432 kts 59°
2026-04-23 21:57 -10.26397 -74.85744 37223 ft 435 kts 59°
2026-04-23 21:58 -10.23296 -74.80477 37216 ft 437 kts 59°
2026-04-23 21:58 -10.20142 -74.75161 37217 ft 439 kts 59°
2026-04-23 21:59 -10.16978 -74.69810 37205 ft 442 kts 59°
2026-04-23 21:59 -10.13831 -74.64481 37203 ft 444 kts 59°
2026-04-23 22:00 -10.09049 -74.56382 37185 ft 446 kts 59°
2026-04-23 22:00 -10.05869 -74.50997 37234 ft 446 kts 59°
2026-04-23 22:01 -10.02685 -74.45608 37224 ft 446 kts 59°
2026-04-23 22:01 -9.99481 -74.40189 37230 ft 446 kts 59°
2026-04-23 22:02 -9.96304 -74.34819 37228 ft 446 kts 59°
2026-04-23 22:02 -9.93103 -74.29411 37224 ft 447 kts 59°
2026-04-23 22:03 -9.89897 -74.23997 37220 ft 447 kts 59°
2026-04-23 22:03 -9.86712 -74.18621 37169 ft 447 kts 59°
2026-04-23 22:04 -9.83501 -74.13200 37099 ft 448 kts 59°
2026-04-23 22:04 -9.80303 -74.07805 37055 ft 448 kts 59°
2026-04-23 22:05 -9.77086 -74.02381 37040 ft 447 kts 59°
2026-04-23 22:05 -9.73876 -73.96972 37030 ft 446 kts 59°
2026-04-23 22:06 -9.70693 -73.91609 37024 ft 445 kts 59°
2026-04-23 22:06 -9.67494 -73.86224 37023 ft 444 kts 59°
2026-04-23 22:07 -9.64305 -73.80856 37017 ft 444 kts 59°
2026-04-23 22:07 -9.61132 -73.75524 37008 ft 443 kts 59°
2026-04-23 22:08 -9.57940 -73.70164 37013 ft 442 kts 59°
2026-04-23 22:08 -9.54779 -73.64856 37001 ft 442 kts 59°
2026-04-23 22:09 -9.51597 -73.59513 36999 ft 442 kts 59°
2026-04-23 22:09 -9.48430 -73.54194 36991 ft 442 kts 59°
2026-04-23 22:10 -9.45243 -73.48848 36997 ft 442 kts 59°
2026-04-23 22:10 -9.42074 -73.43535 36990 ft 442 kts 60°
2026-04-23 22:11 -9.38896 -73.38199 36995 ft 442 kts 60°
2026-04-23 22:11 -9.35726 -73.32887 36984 ft 442 kts 60°
2026-04-23 22:12 -9.32544 -73.27553 36982 ft 441 kts 60°
2026-04-23 22:12 -9.29383 -73.22256 36972 ft 441 kts 60°
2026-04-23 22:13 -9.26207 -73.16935 36970 ft 441 kts 60°
2026-04-23 22:13 -9.23046 -73.11639 36969 ft 440 kts 60°
2026-04-23 22:14 -9.19861 -73.06307 36962 ft 440 kts 60°
2026-04-23 22:14 -9.16692 -73.01005 36961 ft 440 kts 60°
2026-04-23 22:15 -9.13545 -72.95742 36956 ft 439 kts 60°
2026-04-23 22:15 -9.10372 -72.90443 36952 ft 439 kts 60°
2026-04-23 22:16 -9.07220 -72.85183 36943 ft 439 kts 60°
2026-04-23 22:16 -9.04039 -72.79875 36929 ft 439 kts 60°
2026-04-23 22:17 -9.00890 -72.74622 36921 ft 439 kts 60°
2026-04-23 22:17 -8.97714 -72.69326 36912 ft 439 kts 60°
2026-04-23 22:18 -8.94566 -72.64078 36911 ft 439 kts 60°
2026-04-23 22:18 -8.91391 -72.58788 36904 ft 439 kts 60°
2026-04-23 22:19 -8.88230 -72.53523 36892 ft 439 kts 60°
2026-04-23 22:19 -8.85055 -72.48236 36899 ft 439 kts 60°
2026-04-23 22:20 -8.81884 -72.42958 36897 ft 438 kts 60°
2026-04-23 22:20 -8.78731 -72.37711 36889 ft 439 kts 60°
2026-04-23 22:21 -8.75558 -72.32435 36890 ft 439 kts 60°
2026-04-23 22:21 -8.72398 -72.27184 36892 ft 438 kts 60°
2026-04-23 22:22 -8.69220 -72.21904 36888 ft 439 kts 60°
2026-04-23 22:22 -8.66041 -72.16629 36888 ft 439 kts 60°
2026-04-23 22:23 -8.62882 -72.11382 36888 ft 439 kts 60°
2026-04-23 22:23 -8.59707 -72.06110 36879 ft 439 kts 60°
2026-04-23 22:24 -8.56538 -72.00851 36877 ft 439 kts 60°
2026-04-23 22:24 -8.53351 -71.95566 36880 ft 439 kts 60°
2026-04-23 22:25 -8.50181 -71.90309 36878 ft 439 kts 60°
2026-04-23 22:25 -8.47537 -71.85927 36879 ft 439 kts 60°
2026-04-23 22:26 -8.44357 -71.80657 36874 ft 440 kts 60°
2026-04-23 22:26 -8.41172 -71.75384 36869 ft 440 kts 60°
2026-04-23 22:27 -8.37977 -71.70094 36861 ft 440 kts 60°
2026-04-23 22:27 -8.34789 -71.64817 36860 ft 440 kts 60°
2026-04-23 22:28 -8.31608 -71.59555 36860 ft 440 kts 60°
2026-04-23 22:28 -8.28441 -71.54317 36862 ft 439 kts 60°
2026-04-23 22:29 -8.25245 -71.49037 36861 ft 439 kts 60°
2026-04-23 22:29 -8.22075 -71.43803 36862 ft 439 kts 60°
2026-04-23 22:30 -8.18886 -71.38537 36862 ft 438 kts 60°
2026-04-23 22:30 -8.15704 -71.33283 36861 ft 438 kts 60°
2026-04-23 22:31 -8.12527 -71.28044 36860 ft 438 kts 60°
2026-04-23 22:31 -8.09344 -71.22794 36862 ft 438 kts 60°
2026-04-23 22:32 -8.06179 -71.17576 36862 ft 438 kts 60°
2026-04-23 22:32 -8.02987 -71.12316 36861 ft 438 kts 60°
2026-04-23 22:33 -7.99819 -71.07096 36861 ft 438 kts 60°
2026-04-23 22:33 -7.96648 -71.01875 36864 ft 438 kts 60°
2026-04-23 22:34 -7.93463 -70.96630 36860 ft 437 kts 60°
2026-04-23 22:34 -7.90295 -70.91417 36858 ft 436 kts 60°
2026-04-23 22:35 -7.87122 -70.86196 36861 ft 436 kts 60°
2026-04-23 22:35 -7.83971 -70.81013 36861 ft 435 kts 60°
2026-04-23 22:36 -7.80805 -70.75807 36862 ft 435 kts 60°
2026-04-23 22:36 -7.77634 -70.70598 36859 ft 434 kts 60°
2026-04-23 22:37 -7.74492 -70.65438 36861 ft 433 kts 60°
2026-04-23 22:37 -7.71336 -70.60256 36863 ft 433 kts 60°
2026-04-23 22:38 -7.68183 -70.55074 36862 ft 433 kts 60°
2026-04-23 22:38 -7.65071 -70.49968 36860 ft 433 kts 60°
2026-04-23 22:39 -7.61928 -70.44814 36860 ft 433 kts 60°
2026-04-23 22:39 -7.58770 -70.39637 36856 ft 433 kts 60°
2026-04-23 22:40 -7.55612 -70.34460 36848 ft 433 kts 60°
2026-04-23 22:41 -7.50897 -70.26733 36852 ft 433 kts 60°
2026-04-23 22:41 -7.47736 -70.21556 36854 ft 433 kts 60°
2026-04-23 22:42 -7.44592 -70.16407 36852 ft 433 kts 60°
2026-04-23 22:42 -7.41419 -70.11214 36852 ft 434 kts 60°
2026-04-23 22:43 -7.38251 -70.06027 36855 ft 434 kts 60°
2026-04-23 22:43 -7.35096 -70.00863 36849 ft 435 kts 60°
2026-04-23 22:44 -7.32068 -69.95599 36832 ft 432 kts 72°
2026-04-23 22:44 -7.31468 -69.92661 36866 ft 427 kts 89°
2026-04-23 22:44 -7.31702 -69.89682 36846 ft 427 kts 103°
2026-04-23 22:44 -7.32696 -69.86867 36852 ft 427 kts 116°
2026-04-23 22:45 -7.34289 -69.84380 36839 ft 430 kts 130°
2026-04-23 22:45 -7.38944 -69.80534 36844 ft 433 kts 142°
2026-04-23 22:46 -7.43851 -69.77045 36838 ft 434 kts 142°
2026-04-23 22:46 -7.48771 -69.73531 36840 ft 435 kts 142°
2026-04-23 22:47 -7.53687 -69.69967 36840 ft 435 kts 142°
2026-04-23 22:47 -7.58595 -69.66381 36848 ft 435 kts 142°
2026-04-23 22:48 -7.63487 -69.62798 36853 ft 436 kts 142°
2026-04-23 22:48 -7.68402 -69.59198 36863 ft 436 kts 142°
2026-04-23 22:49 -7.73286 -69.55619 36873 ft 436 kts 142°
2026-04-23 22:49 -7.78204 -69.52017 36871 ft 436 kts 142°
2026-04-23 22:50 -7.83127 -69.48412 36871 ft 436 kts 142°
2026-04-23 22:50 -7.88010 -69.44834 36871 ft 436 kts 142°
2026-04-23 22:51 -7.92919 -69.41235 36869 ft 436 kts 142°
2026-04-23 22:51 -7.97838 -69.37628 36871 ft 436 kts 142°
2026-04-23 22:52 -8.02729 -69.34040 36864 ft 436 kts 142°
2026-04-23 22:52 -8.07650 -69.30427 36868 ft 436 kts 142°
2026-04-23 22:53 -8.12535 -69.26842 36871 ft 436 kts 142°
2026-04-23 22:53 -8.17457 -69.23225 36868 ft 437 kts 142°
2026-04-23 22:54 -8.22359 -69.19626 36874 ft 437 kts 142°
2026-04-23 22:54 -8.27330 -69.15975 36271 ft 444 kts 142°
2026-04-23 22:54 -8.29821 -69.14144 35671 ft 443 kts 142°
2026-04-23 22:55 -8.32312 -69.12314 35029 ft 443 kts 142°
2026-04-23 22:55 -8.34813 -69.10476 34378 ft 444 kts 142°
2026-04-23 22:55 -8.37302 -69.08646 33913 ft 440 kts 142°
2026-04-23 22:55 -8.39753 -69.06845 33440 ft 437 kts 142°
2026-04-23 22:56 -8.42201 -69.05045 32975 ft 434 kts 142°
2026-04-23 22:56 -8.44646 -69.03246 32517 ft 430 kts 142°
2026-04-23 22:56 -8.47025 -69.01496 32068 ft 427 kts 142°
2026-04-23 22:56 -8.49423 -68.99730 31614 ft 424 kts 142°
2026-04-23 22:57 -8.51804 -68.97978 31169 ft 421 kts 142°
2026-04-23 22:57 -8.54173 -68.96235 30727 ft 418 kts 142°
2026-04-23 22:57 -8.56487 -68.94531 30289 ft 415 kts 142°
2026-04-23 22:57 -8.58821 -68.92812 29847 ft 412 kts 142°
2026-04-23 22:58 -8.61134 -68.91109 29408 ft 409 kts 142°
2026-04-23 22:58 -8.63404 -68.89437 28958 ft 406 kts 142°
2026-04-23 22:58 -8.65679 -68.87762 28504 ft 403 kts 142°
2026-04-23 22:58 -8.67938 -68.86098 28055 ft 400 kts 142°
2026-04-23 22:59 -8.70191 -68.84437 27607 ft 398 kts 142°
2026-04-23 22:59 -8.72396 -68.82812 27183 ft 394 kts 142°
2026-04-23 22:59 -8.74619 -68.81174 26721 ft 391 kts 142°
2026-04-23 22:59 -8.76797 -68.79568 26279 ft 389 kts 142°
2026-04-23 23:00 -8.78990 -68.77952 25838 ft 386 kts 142°
2026-04-23 23:00 -8.81156 -68.76356 25402 ft 385 kts 142°
2026-04-23 23:00 -8.83310 -68.74758 24968 ft 382 kts 142°
2026-04-23 23:00 -8.85429 -68.73198 24533 ft 380 kts 142°
2026-04-23 23:01 -8.87570 -68.71630 24099 ft 379 kts 142°
2026-04-23 23:01 -8.89696 -68.70078 23669 ft 376 kts 142°
2026-04-23 23:01 -8.91801 -68.68521 23238 ft 374 kts 142°
2026-04-23 23:01 -8.93896 -68.66967 22823 ft 372 kts 142°
2026-04-23 23:02 -8.95984 -68.65421 22408 ft 370 kts 142°
2026-04-23 23:02 -8.98032 -68.63903 21977 ft 367 kts 142°
2026-04-23 23:02 -9.00082 -68.62385 21565 ft 364 kts 142°
2026-04-23 23:02 -9.02133 -68.60869 21131 ft 363 kts 142°
2026-04-23 23:03 -9.04164 -68.59371 20723 ft 360 kts 142°
2026-04-23 23:03 -9.06182 -68.57882 20312 ft 359 kts 142°
2026-04-23 23:03 -9.08195 -68.56390 19901 ft 356 kts 142°
2026-04-23 23:03 -9.10187 -68.54923 19493 ft 353 kts 142°
2026-04-23 23:04 -9.12159 -68.53443 19091 ft 351 kts 142°
2026-04-23 23:04 -9.14102 -68.52003 18688 ft 349 kts 142°
2026-04-23 23:04 -9.16065 -68.50560 18272 ft 347 kts 142°
2026-04-23 23:04 -9.18024 -68.49120 17878 ft 345 kts 142°
2026-04-23 23:05 -9.19961 -68.47693 17479 ft 342 kts 142°
2026-04-23 23:05 -9.21861 -68.46289 17088 ft 340 kts 142°
2026-04-23 23:05 -9.23775 -68.44875 16691 ft 338 kts 142°
2026-04-23 23:05 -9.25667 -68.43475 16297 ft 336 kts 142°
2026-04-23 23:06 -9.27527 -68.42098 15906 ft 334 kts 142°
2026-04-23 23:06 -9.29400 -68.40711 15517 ft 332 kts 142°
2026-04-23 23:06 -9.31258 -68.39336 15127 ft 330 kts 142°
2026-04-23 23:06 -9.33109 -68.37966 14746 ft 327 kts 142°
2026-04-23 23:07 -9.34942 -68.36609 14361 ft 325 kts 142°
2026-04-23 23:07 -9.36778 -68.35266 13977 ft 324 kts 144°
2026-04-23 23:07 -9.38788 -68.34233 13604 ft 325 kts 158°
2026-04-23 23:07 -9.40923 -68.33495 13250 ft 322 kts 160°
2026-04-23 23:08 -9.43025 -68.32801 12888 ft 320 kts 160°
2026-04-23 23:08 -9.45144 -68.32105 12514 ft 318 kts 160°
2026-04-23 23:08 -9.47248 -68.31411 12146 ft 316 kts 160°
2026-04-23 23:08 -9.49344 -68.30716 11776 ft 314 kts 160°
2026-04-23 23:09 -9.51411 -68.30025 11411 ft 313 kts 159°
2026-04-23 23:09 -9.53448 -68.29341 11046 ft 311 kts 159°
2026-04-23 23:09 -9.55501 -68.28650 10678 ft 309 kts 159°
2026-04-23 23:09 -9.57537 -68.27963 10339 ft 307 kts 159°
2026-04-23 23:10 -9.58864 -68.27515 10270 ft 300 kts 159°
2026-04-23 23:10 -9.61461 -68.26639 10095 ft 288 kts 159°
2026-04-23 23:10 -9.63340 -68.26005 9970 ft 279 kts 159°
2026-04-23 23:10 -9.65138 -68.25397 9803 ft 273 kts 159°
2026-04-23 23:11 -9.66936 -68.24788 9517 ft 272 kts 159°
2026-04-23 23:11 -9.68730 -68.24180 9240 ft 270 kts 159°
2026-04-23 23:11 -9.70506 -68.23578 8971 ft 269 kts 159°
2026-04-23 23:11 -9.72283 -68.22976 8683 ft 267 kts 159°
2026-04-23 23:12 -9.74047 -68.22379 8402 ft 266 kts 159°
2026-04-23 23:12 -9.75780 -68.21793 8125 ft 265 kts 159°
2026-04-23 23:12 -9.77524 -68.21201 7843 ft 264 kts 159°
2026-04-23 23:12 -9.79263 -68.20613 7563 ft 263 kts 159°
2026-04-23 23:13 -9.81001 -68.20024 7288 ft 262 kts 159°
2026-04-23 23:13 -9.82724 -68.19440 6996 ft 261 kts 159°
2026-04-23 23:13 -9.84425 -68.18864 6705 ft 260 kts 159°
2026-04-23 23:13 -9.86144 -68.18282 6419 ft 259 kts 159°
2026-04-23 23:14 -9.87856 -68.17702 6141 ft 258 kts 159°
2026-04-23 23:14 -9.88985 -68.17319 5960 ft 258 kts 159°
2026-04-23 23:14 -9.91240 -68.16555 5597 ft 256 kts 159°
2026-04-23 23:14 -9.92928 -68.15982 5319 ft 254 kts 159°
2026-04-23 23:15 -9.94052 -68.15602 5186 ft 249 kts 159°
2026-04-23 23:15 -9.95652 -68.15060 4900 ft 242 kts 159°
2026-04-23 23:15 -9.97228 -68.14527 4649 ft 235 kts 159°
2026-04-23 23:15 -9.98730 -68.13994 4525 ft 221 kts 153°
2026-04-23 23:16 -9.99824 -68.13018 4404 ft 203 kts 119°
2026-04-23 23:16 -10.00258 -68.11718 4330 ft 189 kts 95°
2026-04-23 23:16 -10.00081 -68.10472 4239 ft 176 kts 66°
2026-04-23 23:16 -9.99518 -68.09372 4205 ft 176 kts 64°
2026-04-23 23:17 -9.98901 -68.08286 4120 ft 176 kts 61°
2026-04-23 23:17 -9.98263 -68.07242 4044 ft 175 kts 60°
2026-04-23 23:17 -9.97603 -68.06193 3889 ft 179 kts 60°
2026-04-23 23:17 -9.96926 -68.05126 3716 ft 179 kts 59°
2026-04-23 23:18 -9.96265 -68.04088 3516 ft 175 kts 59°
2026-04-23 23:18 -9.95609 -68.03060 3321 ft 172 kts 59°
2026-04-23 23:18 -9.94961 -68.02043 3144 ft 172 kts 59°
2026-04-23 23:18 -9.94318 -68.01034 2966 ft 165 kts 59°
2026-04-23 23:19 -9.93712 -68.00082 2891 ft 160 kts 60°
2026-04-23 23:19 -9.93096 -67.99114 2683 ft 163 kts 59°
2026-04-23 23:19 -9.92486 -67.98156 2466 ft 165 kts 59°
2026-04-23 23:19 -9.91870 -67.97189 2279 ft 159 kts 58°
2026-04-23 23:20 -9.91288 -67.96275 2070 ft 148 kts 58°
2026-04-23 23:20 -9.90731 -67.95401 1852 ft 145 kts 58°
2026-04-23 23:20 -9.90182 -67.94538 1664 ft 146 kts 57°
2026-04-23 23:20 -9.89628 -67.93669 1465 ft 147 kts 57°
2026-04-23 23:21 -9.89083 -67.92811 1272 ft 145 kts 58°
2026-04-23 23:21 -9.88536 -67.91954 1079 ft 145 kts 57°
2026-04-23 23:21 -9.87990 -67.91095 888 ft 144 kts 57°
2026-04-23 23:21 -9.87445 -67.90229 678 ft 145 kts 56°
2026-04-23 23:22 -9.86920 -67.89423 625 ft 116 kts 57°
2026-04-23 23:22 -9.86698 -67.89080 608 ft 4 kts 56°
2026-04-23 23:22 -9.86686 -67.89054 617 ft 5 kts 86°
2026-04-23 23:22 -9.86680 -67.89012 618 ft 6 kts 56°
2026-04-23 23:23 -9.86644 -67.89020 606 ft 6 kts 294°
2026-04-23 23:23 -9.86666 -67.89055 615 ft 6 kts 223°
2026-04-23 23:23 -9.86702 -67.89089 609 ft 8 kts 224°
2026-04-23 23:23 -9.86736 -67.89136 610 ft 8 kts 237°
2026-04-23 23:24 -9.86767 -67.89183 612 ft 8 kts 237°
2026-04-23 23:24 -9.86787 -67.89232 616 ft 8 kts 282°
2026-04-23 23:24 -9.86771 -67.89278 616 ft 6 kts 284°
2026-04-23 23:24 -9.86762 -67.89318 614 ft 6 kts 282°
2026-04-23 23:25 -9.86753 -67.89358 614 ft 6 kts 282°
2026-04-23 23:25 -9.86745 -67.89397 614 ft 6 kts 282°
2026-04-23 23:25 -9.86736 -67.89436 615 ft 6 kts 282°
2026-04-23 23:25 -9.86728 -67.89474 625 ft 5 kts 282°
2026-04-23 23:26 -9.86720 -67.89511 615 ft 5 kts 282°
2026-04-23 23:26 -9.86712 -67.89548 616 ft 5 kts 283°
2026-04-23 23:26 -9.86710 -67.89584 616 ft 5 kts 253°
2026-04-23 23:26 -9.86728 -67.89616 617 ft 5 kts 237°
2026-04-23 23:27 -9.86746 -67.89646 618 ft 5 kts 248°
2026-04-23 23:27 -9.86753 -67.89681 618 ft 4 kts 264°
2026-04-23 23:27 -9.86727 -67.89712 618 ft 0 kts 327°
2026-04-23 23:27 -9.86728 -67.89712 625 ft 0 kts 324°